When you browse on this site, cookies collect data to enhance your experience and personalize the content and advertising you see.
Visit our Privacy Policy to learn more. By continuing to use the site, you agree to this use of cookies and data.
  • In Hungary
  • List of Countries
  • For 7 days
  • Water Temperature
  • Satellite Maps
  • Weather Map
  • News
  • Weather Widgets
  • user-avatar
    Login

    Hourly Weather Pereval'noe

    Today, 21 July, Sunday

    Time Temperature Precipitation Wind Pressure Humidity
    00:00 +18°C° 0 mm 1 mps 718 mmHg 57%
    01:00 +18°C° 0 mm 1 mps 718 mmHg 57%
    02:00 +18°C° 0 mm 1 mps 718 mmHg 57%
    03:00 +17°C° 0 mm 2 mps 718 mmHg 58%
    04:00 +17°C° 0 mm 2 mps 718 mmHg 60%
    05:00 +17°C° 0 mm 2 mps 718 mmHg 61%
    06:00 +19°C° 0 mm 2 mps 718 mmHg 55%
    07:00 +22°C° 0 mm 3 mps 719 mmHg 49%
    08:00 +25°C° 0 mm 3 mps 719 mmHg 44%
    09:00 +26°C° 0 mm 3 mps 719 mmHg 40%
    10:00 +27°C° 0 mm 3 mps 719 mmHg 37%
    11:00 +28°C° 0 mm 4 mps 719 mmHg 34%
    12:00 +29°C° 0 mm 4 mps 719 mmHg 33%
    13:00 +29°C° 0 mm 3 mps 719 mmHg 32%
    14:00 +30°C° 0 mm 3 mps 719 mmHg 31%
    15:00 +29°C° 0 mm 3 mps 719 mmHg 34%
    16:00 +28°C° 0 mm 3 mps 719 mmHg 36%
    17:00 +27°C° 0 mm 3 mps 719 mmHg 38%
    18:00 +25°C° 0 mm 2 mps 719 mmHg 44%
    19:00 +23°C° 0 mm 2 mps 718 mmHg 49%
    20:00 +20°C° 0 mm 2 mps 718 mmHg 54%
    21:00 +21°C° 0 mm 1 mps 718 mmHg 52%
    22:00 +20°C° 0 mm 1 mps 718 mmHg 51%
    23:00 +20°C° 0 mm 1 mps 718 mmHg 49%

    Tomorrow, 22 July, Monday

    Time Temperature Precipitation Wind Pressure Humidity
    00:00 +20°C° 0 mm 1 mps 718 mmHg 49%
    01:00 +19°C° 0 mm 1 mps 718 mmHg 50%
    02:00 +19°C° 0 mm 1 mps 718 mmHg 50%
    03:00 +19°C° 0 mm 1 mps 718 mmHg 53%
    04:00 +19°C° 0 mm 1 mps 718 mmHg 55%
    05:00 +19°C° 0 mm 1 mps 718 mmHg 57%
    06:00 +22°C° 0 mm 1 mps 718 mmHg 52%
    07:00 +24°C° 0 mm 1 mps 719 mmHg 47%
    08:00 +26°C° 0 mm 1 mps 719 mmHg 41%
    09:00 +27°C° 0 mm 2 mps 719 mmHg 39%
    10:00 +28°C° 0 mm 2 mps 719 mmHg 36%
    11:00 +29°C° 0 mm 2 mps 719 mmHg 33%
    12:00 +29°C° 0 mm 3 mps 719 mmHg 34%
    13:00 +29°C° 0 mm 3 mps 719 mmHg 34%
    14:00 +29°C° 0 mm 3 mps 719 mmHg 35%
    15:00 +29°C° 0 mm 3 mps 718 mmHg 37%
    16:00 +29°C° 0 mm 3 mps 718 mmHg 39%
    17:00 +28°C° 0 mm 2 mps 718 mmHg 41%
    18:00 +26°C° 0 mm 2 mps 718 mmHg 48%
    19:00 +24°C° 0 mm 2 mps 717 mmHg 55%
    20:00 +22°C° 0 mm 1 mps 717 mmHg 62%
    21:00 +21°C° 0 mm 1 mps 717 mmHg 62%
    22:00 +21°C° 0 mm 1 mps 717 mmHg 63%
    23:00 +20°C° 0 mm 1 mps 717 mmHg 63%

    Day after tomorrow, 23 July, Tuesday

    Time Temperature Precipitation Wind Pressure Humidity
    00:00 +19°C° 0 mm 2 mps 716 mmHg 65%
    01:00 +19°C° 0 mm 2 mps 716 mmHg 66%
    02:00 +18°C° 0 mm 2 mps 715 mmHg 68%
    03:00 +18°C° 0 mm 2 mps 715 mmHg 68%
    04:00 +18°C° 0 mm 2 mps 715 mmHg 68%
    05:00 +18°C° 0 mm 2 mps 715 mmHg 69%
    06:00 +21°C° 0 mm 2 mps 715 mmHg 61%
    07:00 +24°C° 0 mm 1 mps 715 mmHg 53%
    08:00 +27°C° 0 mm 1 mps 715 mmHg 45%
    09:00 +27°C° 0.2 mm 2 mps 715 mmHg 48%
    10:00 +27°C° 0.2 mm 2 mps 715 mmHg 51%
    11:00 +27°C° 0.2 mm 3 mps 716 mmHg 54%
    12:00 +26°C° 1.6 mm 3 mps 715 mmHg 61%
    13:00 +24°C° 1.6 mm 2 mps 715 mmHg 67%
    14:00 +23°C° 1.6 mm 2 mps 715 mmHg 74%
    15:00 +23°C° 1.6 mm 2 mps 715 mmHg 76%
    16:00 +21°C° 1.6 mm 2 mps 715 mmHg 79%
    17:00 +21°C° 1.6 mm 2 mps 714 mmHg 81%
    18:00 +20°C° 1 mm 2 mps 714 mmHg 83%
    19:00 +19°C° 1 mm 2 mps 714 mmHg 86%
    20:00 +18°C° 1 mm 2 mps 714 mmHg 88%
    21:00 +18°C° 0.3 mm 2 mps 714 mmHg 88%
    22:00 +18°C° 0.3 mm 1 mps 714 mmHg 87%
    23:00 +18°C° 0.3 mm 1 mps 714 mmHg 87%

    24 July, Wednesday

    Time Temperature Precipitation Wind Pressure Humidity
    00:00 +16°C° 0 mm 1 mps 714 mmHg 88%
    01:00 +16°C° 0 mm 2 mps 714 mmHg 88%
    02:00 +16°C° 0 mm 2 mps 714 mmHg 89%
    03:00 +16°C° 0 mm 2 mps 714 mmHg 88%
    04:00 +16°C° 0 mm 2 mps 714 mmHg 87%
    05:00 +16°C° 0 mm 2 mps 713 mmHg 87%
    06:00 +17°C° 0 mm 2 mps 714 mmHg 79%
    07:00 +19°C° 0 mm 2 mps 714 mmHg 72%
    08:00 +21°C° 0 mm 2 mps 714 mmHg 65%
    09:00 +22°C° 0 mm 3 mps 715 mmHg 59%
    10:00 +24°C° 0 mm 3 mps 715 mmHg 53%
    11:00 +25°C° 0 mm 4 mps 715 mmHg 47%
    12:00 +25°C° 0.1 mm 4 mps 715 mmHg 49%
    13:00 +25°C° 0.1 mm 4 mps 715 mmHg 50%
    14:00 +23°C° 0.1 mm 4 mps 715 mmHg 52%
    15:00 +22°C° 0.6 mm 4 mps 715 mmHg 58%
    16:00 +21°C° 0.6 mm 4 mps 714 mmHg 64%
    17:00 +20°C° 0.6 mm 4 mps 714 mmHg 70%
    18:00 +19°C° 0.5 mm 3 mps 714 mmHg 76%
    19:00 +18°C° 0.5 mm 3 mps 714 mmHg 82%
    20:00 +16°C° 0.5 mm 3 mps 714 mmHg 88%
    21:00 +16°C° 0 mm 3 mps 714 mmHg 89%
    22:00 +15°C° 0 mm 2 mps 714 mmHg 90%
    23:00 +15°C° 0 mm 2 mps 714 mmHg 91%

    25 July, Thursday

    Time Temperature Precipitation Wind Pressure Humidity
    00:00 +15°C° 0 mm 2 mps 713 mmHg 91%
    01:00 +15°C° 0 mm 2 mps 713 mmHg 91%
    02:00 +15°C° 0 mm 2 mps 713 mmHg 92%
    03:00 +15°C° 0 mm 2 mps 713 mmHg 91%
    04:00 +15°C° 0 mm 2 mps 713 mmHg 90%
    05:00 +16°C° 0 mm 2 mps 713 mmHg 89%
    06:00 +17°C° 0.1 mm 2 mps 713 mmHg 82%
    07:00 +18°C° 0.1 mm 2 mps 713 mmHg 76%
    08:00 +20°C° 0.1 mm 2 mps 714 mmHg 69%
    09:00 +21°C° 0.1 mm 2 mps 714 mmHg 62%
    10:00 +24°C° 0.1 mm 2 mps 714 mmHg 56%
    11:00 +25°C° 0.1 mm 3 mps 714 mmHg 49%
    12:00 +25°C° 0.2 mm 3 mps 714 mmHg 49%
    13:00 +25°C° 0.2 mm 4 mps 714 mmHg 50%
    14:00 +25°C° 0.2 mm 4 mps 714 mmHg 51%
    15:00 +25°C° 0.1 mm 4 mps 714 mmHg 54%
    16:00 +24°C° 0.1 mm 3 mps 714 mmHg 57%
    17:00 +22°C° 0.1 mm 3 mps 714 mmHg 60%
    18:00 +21°C° 0 mm 3 mps 714 mmHg 68%
    19:00 +19°C° 0 mm 2 mps 714 mmHg 76%
    20:00 +17°C° 0 mm 2 mps 713 mmHg 84%
    21:00 +17°C° 0 mm 2 mps 713 mmHg 87%
    22:00 +17°C° 0 mm 2 mps 713 mmHg 89%
    23:00 +17°C° 0 mm 2 mps 713 mmHg 92%

    26 July, Friday

    Time Temperature Precipitation Wind Pressure Humidity
    00:00 +17°C° 0 mm 2 mps 713 mmHg 92%
    01:00 +16°C° 0 mm 2 mps 713 mmHg 93%
    02:00 +16°C° 0 mm 2 mps 712 mmHg 93%
    03:00 +16°C° 0 mm 2 mps 712 mmHg 93%
    04:00 +16°C° 0 mm 2 mps 712 mmHg 93%
    05:00 +16°C° 0 mm 2 mps 712 mmHg 93%
    06:00 +18°C° 0 mm 2 mps 712 mmHg 87%
    07:00 +19°C° 0 mm 2 mps 713 mmHg 81%
    08:00 +21°C° 0 mm 2 mps 713 mmHg 75%
    09:00 +23°C° 0.1 mm 2 mps 713 mmHg 72%
    10:00 +23°C° 0.1 mm 2 mps 713 mmHg 68%
    11:00 +24°C° 0.1 mm 3 mps 713 mmHg 64%
    12:00 +24°C° 0.6 mm 2 mps 713 mmHg 65%
    13:00 +25°C° 0.6 mm 2 mps 713 mmHg 66%
    14:00 +25°C° 0.6 mm 2 mps 713 mmHg 67%
    15:00 +24°C° 0.8 mm 2 mps 712 mmHg 70%
    16:00 +24°C° 0.8 mm 2 mps 712 mmHg 73%
    17:00 +23°C° 0.8 mm 2 mps 712 mmHg 77%
    18:00 +21°C° 0.2 mm 2 mps 712 mmHg 79%
    19:00 +21°C° 0.2 mm 1 mps 712 mmHg 81%
    20:00 +20°C° 0.2 mm 1 mps 712 mmHg 83%
    21:00 +20°C° 0 mm 1 mps 712 mmHg 82%
    22:00 +19°C° 0 mm 1 mps 712 mmHg 80%
    23:00 +19°C° 0 mm 1 mps 712 mmHg 78%
    Show more